TimeMST,TemperatureF,Dew PointF,Humidity,Sea Level PressureIn,VisibilityMPH,Wind Direction,Wind SpeedMPH,Gust SpeedMPH,PrecipitationIn,Events,Conditions,WindDirDegrees,DateUTC
12:03 AM,17.6,12.2,79,29.88,10.0,SW,15.0,-,N/A,,Overcast,230,2013-02-22 07:03:00
12:54 AM,17.1,10.0,74,30.03,10.0,WSW,17.3,-,N/A,,Overcast,250,2013-02-22 07:54:00
1:54 AM,16.0,10.9,81,30.03,10.0,WSW,15.0,-,N/A,,Overcast,250,2013-02-22 08:54:00
2:54 AM,16.0,10.9,81,30.02,10.0,WSW,13.8,-,N/A,,Mostly Cloudy,250,2013-02-22 09:54:00
3:54 AM,15.1,10.0,80,30.02,10.0,West,17.3,-,N/A,,Clear,260,2013-02-22 10:54:00
4:54 AM,15.1,10.0,80,30.02,10.0,WSW,11.5,-,N/A,,Clear,250,2013-02-22 11:54:00
5:54 AM,15.1,8.1,74,30.04,10.0,West,8.1,-,N/A,,Partly Cloudy,270,2013-02-22 12:54:00
6:11 AM,15.8,10.4,79,29.90,10.0,West,6.9,-,N/A,,Mostly Cloudy,260,2013-02-22 13:11:00
6:32 AM,15.8,10.4,79,29.90,10.0,West,8.1,-,N/A,,Overcast,260,2013-02-22 13:32:00
6:54 AM,15.1,10.9,84,30.06,10.0,WSW,5.8,-,N/A,,Scattered Clouds,240,2013-02-22 13:54:00
7:54 AM,16.0,12.0,84,30.07,10.0,WSW,10.4,-,N/A,,Mostly Cloudy,250,2013-02-22 14:54:00
8:54 AM,19.0,12.9,77,30.08,10.0,West,11.5,-,N/A,,Overcast,260,2013-02-22 15:54:00
9:54 AM,21.0,12.9,71,30.08,10.0,West,16.1,-,N/A,,Partly Cloudy,270,2013-02-22 16:54:00
10:54 AM,24.1,12.0,60,30.08,10.0,West,15.0,-,N/A,,Scattered Clouds,280,2013-02-22 17:54:00
11:54 AM,27.0,10.0,49,30.06,10.0,NW,13.8,21.9,N/A,,Mostly Cloudy,310,2013-02-22 18:54:00
12:54 PM,27.0,8.1,45,30.04,10.0,WNW,13.8,-,N/A,,Overcast,300,2013-02-22 19:54:00
1:54 PM,28.0,12.0,51,30.03,10.0,WSW,16.1,-,N/A,,Partly Cloudy,250,2013-02-22 20:54:00
2:54 PM,28.0,9.0,45,30.02,10.0,West,23.0,31.1,N/A,,Mostly Cloudy,270,2013-02-22 21:54:00
3:54 PM,26.1,8.1,47,30.03,10.0,West,21.9,-,N/A,,Clear,270,2013-02-22 22:54:00
4:54 PM,27.0,8.1,45,30.03,10.0,West,26.5,32.2,N/A,,Partly Cloudy,270,2013-02-22 23:54:00
5:54 PM,23.0,8.1,53,30.06,10.0,West,25.3,35.7,N/A,,Clear,280,2013-02-23 00:54:00
6:54 PM,21.0,10.0,63,30.08,10.0,West,21.9,28.8,N/A,,Clear,260,2013-02-23 01:54:00
7:54 PM,21.0,9.0,60,30.06,10.0,West,21.9,32.2,N/A,,Clear,260,2013-02-23 02:54:00
8:54 PM,19.9,10.0,65,30.06,10.0,WSW,21.9,27.6,N/A,,Clear,250,2013-02-23 03:54:00
9:54 PM,19.9,10.0,65,30.04,10.0,West,28.8,36.8,N/A,,Clear,260,2013-02-23 04:54:00
10:54 PM,19.9,10.0,65,30.01,10.0,WSW,24.2,-,N/A,,Overcast,250,2013-02-23 05:54:00
11:54 PM,19.9,10.0,65,29.99,10.0,WSW,20.7,-,N/A,,Scattered Clouds,250,2013-02-23 06:54:00